ALPHASAT

Last updated on Nov. 17, 2019, 4:19 a.m. UTC

1 39215U 13038A   19320.84355200  .00000145  00000-0  00000+0 0  9996
2 39215   2.3355  22.2038 0002141 211.0498 150.9148  1.00274130 23168
UTC
Height (km)
Latitude
Longitude
Inclination
Orbital Period
UTC large
Height (km)
Speed (km/s)
/
Latitude / Longitude
Inclination (degrees)
Orbital Period (minutes)
Azimuth
Elevation
Range (km)
Doppler Factor
iOS Compass Heading
iOS Angle

Next 30 passes for location: Hong Kong

Rise time Rise Azimuth (degrees) Set time Set Azimuth (degrees) Duration Max altitude (degrees)

No matching passes for this satellites